Terminal Aerodrome Forecast
Issued by NWS

Home | Current Version | Previous Version | Text Only | Print | Product List | Glossary On
Versions: 1 2 3 4 5 6 7 8 9 10 11 12 13 14 15 16 17 18 19 20 21 22 23 24 25 26 27
000
FTUS43 KPAH 262320
TAFOWB
TAF
KOWB 262320Z 2700/2724 22003KT P6SM SCT150
     FM270900 00000KT 6SM BR FEW040 SCT100
     FM271400 23006KT P6SM SCT035=

USA.gov is the U.S. government's official web portal to all federal, state and local government web resources and services.